FW9613 Weather Reports


time (UTC)temp
C
wind
direction
speed
KPH
gust
KPH
rain 1hr
cm
rain 24hr
cm
rain mn
cm
humidity
%
barometer
mb
20260507210053 18 234 14.5 30.6 0.00 0.00 0.00 36 1014.4
20260507204552 18 272 14.5 24.1 0.00 0.00 0.00 36 1014.9
20260507203100 18 181 11.3 27.4 0.00 0.00 0.00 35 1015.1
20260507201551 18 250 8.0 24.1 0.00 0.00 0.00 35 1015.2
20260507200054 18 248 16.1 27.4 0.00 0.00 0.00 34 1015.4
20260507194554 18 240 11.3 22.5 0.00 0.00 0.00 35 1015.5
20260507193101 18 253 19.3 30.6 0.00 0.00 0.00 34 1015.9
20260507191553 18 282 12.9 29.0 0.00 0.00 0.00 35 1016.0
20260507190052 18 189 12.9 25.7 0.00 0.00 0.00 33 1016.0
20260507184554 18 232 14.5 32.2 0.00 0.00 0.00 33 1016.0
20260507183058 17 244 12.9 29.0 0.00 0.00 0.00 35 1016.3
20260507181553 18 242 11.3 24.1 0.00 0.00 0.00 32 1016.4
20260507180053 17 211 4.8 25.7 0.00 0.00 0.00 35 1016.8
20260507174605 17 218 14.5 27.4 0.00 0.00 0.00 34 1016.9
20260507173101 17 252 4.8 24.1 0.00 0.00 0.00 34 1017.2
20260507171609 16 253 6.4 24.1 0.00 0.00 0.00 34 1017.3
20260507170057 17 265 11.3 22.5 0.00 0.00 0.00 31 1017.6
20260507164607 16 265 11.3 19.3 0.00 0.00 0.00 37 1017.6
20260507163051 16 244 6.4 19.3 0.00 0.00 0.00 35 1017.7
20260507161603 16 209 9.7 17.7 0.00 0.00 0.00 35 1017.8
20260507160058 16 240 8.0 24.1 0.00 0.00 0.00 36 1018.0
20260507154555 15 211 12.9 19.3 0.00 0.00 0.00 38 1018.1
20260507153052 15 221 4.8 20.9 0.00 0.00 0.00 39 1018.1
20260507151552 16 231 1.6 16.1 0.00 0.00 0.00 41 1018.2
20260507144553 15 207 3.2 14.5 0.00 0.00 0.00 41 1018.4
20260507143055 14 230 9.7 12.9 0.00 0.00 0.00 40 1018.4
20260507141554 14 144 6.4 14.5 0.00 0.00 0.00 45 1018.4
20260507140051 13 162 3.2 9.7 0.00 0.00 0.00 48 1018.5
20260507134555 12 157 4.8 9.7 0.00 0.00 0.00 51 1018.5
20260507133057 12 126 6.4 11.3 0.00 0.00 0.00 52 1018.7
20260507131558 11 218 4.8 12.9 0.00 0.00 0.00 59 1018.7
20260507130051 10 196 4.8 9.7 0.00 0.00 0.00 62 1018.7
20260507124555 8 171 3.2 8.0 0.00 0.00 0.00 68 1018.5
20260507123051 7 0 0.0 6.4 0.00 0.00 0.00 72 1018.5
20260507121601 7 0 0.0 0.0 0.00 0.00 0.00 73 1018.4
20260507120055 7 0 0.0 0.0 0.00 0.00 0.00 73 1018.1
20260507114549 6 0 0.0 0.0 0.00 0.00 0.00 74 1018.1
20260507113052 6 0 0.0 0.0 0.00 0.00 0.00 77 1018.0
20260507111549 6 0 0.0 0.0 0.00 0.00 0.00 76 1017.9
20260507110105 6 0 0.0 4.8 0.00 0.00 0.00 76 1017.7
20260507104550 6 176 1.6 3.2 0.00 0.00 0.00 77 1017.6
20260507103056 6 176 1.6 4.8 0.00 0.00 0.00 77 1017.7
20260507101551 6 0 0.0 0.0 0.00 0.00 0.00 77 1017.7
20260507100051 6 0 0.0 0.0 0.00 0.00 0.00 78 1017.7
20260507094608 5 0 0.0 0.0 0.00 0.00 0.00 77 1017.7
20260507093100 5 0 0.0 0.0 0.00 0.00 0.00 77 1017.7
20260507091618 5 0 0.0 1.6 0.00 0.00 0.00 77 1017.6
20260507090104 5 0 1.6 3.2 0.00 0.00 0.00 76 1017.6
20260507084555 5 0 0.0 1.6 0.00 0.00 0.00 76 1017.4
20260507083053 6 0 0.0 0.0 0.00 0.00 0.00 77 1017.5
20260507081555 6 0 0.0 4.8 0.00 0.00 0.00 76 1017.7
20260507080056 6 0 0.0 0.0 0.00 0.00 0.00 76 1018.0
20260507074550 6 0 0.0 0.0 0.00 0.00 0.00 75 1018.1
20260507073050 6 0 0.0 0.0 0.00 0.00 0.00 75 1018.1
20260507071554 6 0 0.0 0.0 0.00 0.00 0.00 75 1018.1
20260507070103 6 0 0.0 0.0 0.00 0.00 0.00 73 1018.1
20260507064553 6 0 0.0 0.0 0.00 0.00 0.00 71 1018.1
20260507063054 7 0 0.0 0.0 0.00 0.00 0.00 69 1018.1
20260507061605 7 0 0.0 0.0 0.00 0.00 0.00 67 1018.0
20260507060104 7 0 0.0 4.8 0.00 0.00 0.00 66 1018.2
20260507054555 7 0 0.0 4.8 0.00 0.00 0.00 66 1018.4
20260507053053 7 0 0.0 3.2 0.00 0.00 0.00 65 1018.1
20260507051553 8 0 1.6 4.8 0.00 0.00 0.00 65 1018.1
20260507050054 8 318 0.0 3.2 0.00 0.00 0.00 65 1017.9
20260507044548 8 0 0.0 4.8 0.00 0.03 0.00 64 1017.9
20260507043055 8 314 3.2 6.4 0.00 0.03 0.00 63 1017.9
20260507041550 8 341 1.6 6.4 0.00 0.03 0.00 63 1017.9
20260507040052 9 327 3.2 11.3 0.00 0.03 0.00 62 1017.9
20260507034557 9 321 4.8 9.7 0.00 0.10 0.00 61 1017.8
20260507033050 9 348 4.8 8.0 0.00 0.10 0.00 61 1017.8
20260507031546 10 300 3.2 6.4 0.00 0.10 0.00 58 1017.8
20260507030052 10 350 3.2 6.4 0.00 0.10 0.00 55 1017.7
20260507024556 10 11 3.2 8.0 0.00 0.25 0.00 54 1017.7
20260507023050 11 338 3.2 9.7 0.00 0.25 0.00 54 1017.5
20260507021557 11 338 3.2 8.0 0.00 0.25 0.00 54 1017.5
20260507020053 11 338 1.6 8.0 0.00 0.25 0.00 53 1017.4
20260507014550 11 344 3.2 8.0 0.00 1.09 0.00 52 1017.2
20260507013049 12 14 4.8 9.7 0.00 1.09 0.00 51 1017.1
20260507011551 12 22 1.6 8.0 0.00 1.09 0.00 52 1017.0
20260507010105 12 19 1.6 8.0 0.00 1.09 0.00 51 1016.6
20260507004553 13 352 4.8 14.5 0.00 1.17 0.00 49 1016.6
20260507003055 13 325 6.4 14.5 0.00 1.17 0.00 49 1016.3
20260507001558 13 31 8.0 14.5 0.00 1.17 0.00 49 1015.8
20260507000059 13 360 8.0 16.1 0.00 1.17 0.00 48 1016.0
20260506234602 14 352 8.0 20.9 0.00 1.17 0.00 47 1015.7
20260506233103 15 342 9.7 20.9 0.00 1.17 0.00 44 1015.8
20260506231554 15 10 6.4 20.9 0.00 1.17 0.00 45 1015.7
20260506230053 15 352 14.5 25.7 0.00 1.17 0.00 44 1015.8
20260506224600 15 17 12.9 24.1 0.00 1.19 0.00 43 1016.0
20260506223100 15 360 11.3 20.9 0.00 1.19 0.00 43 1015.7
20260506221553 15 301 12.9 19.3 0.00 1.19 0.00 40 1015.9
20260506220057 15 271 4.8 29.0 0.00 1.19 0.00 40 1015.9
20260506214601 16 329 8.0 24.1 0.00 1.22 0.00 42 1015.9
20260506213057 16 323 12.9 25.7 0.00 1.22 0.00 40 1015.9
20260506211554 15 290 11.3 19.3 0.00 1.22 0.00 40 1015.8